Track DEMOSAT/FALCON 1 now! 10-day predictions DEMOSAT/FALCON 1 is classified as:
1 33393U 08048A 25198.99985888 .00002555 00000-0 16734-3 0 9991 2 33393 9.3453 95.7074 0011343 255.3357 104.5585 14.94466831912805